IGO43V VIDP-VGHS

Flight info

Callsign IGO43V
Flight time 1h 44m
Altitude 37000
Route LKN7G LKN W45 BODOG A201 RAJ G463 IDLOX IDLOX1E
Aircraft A320/M-SDE3FGHIRWY/LB1

Departure

Time 2026-05-08 11:02
Airport Indira Gandhi International Airport (VIDP)

Arrival

Time 2026-05-08 12:47
Airport Hazrat Shahjalal International Airport (VGHS)
Time Latitude Longitude Altitude Speed Heading
2026-05-08 10:12 28.55887 77.08271 736 ft 0 kts 62°
2026-05-08 10:48 28.55886 77.08268 735 ft 1 kts 62°
2026-05-08 10:48 28.55877 77.08250 735 ft 3 kts 59°
2026-05-08 10:49 28.55867 77.08230 735 ft 3 kts 60°
2026-05-08 10:49 28.55857 77.08211 735 ft 3 kts 56°
2026-05-08 10:49 28.55844 77.08194 733 ft 3 kts 32°
2026-05-08 10:49 28.55826 77.08184 735 ft 3 kts 15°
2026-05-08 10:50 28.55808 77.08179 733 ft 3 kts 13°
2026-05-08 10:50 28.55788 77.08174 735 ft 3 kts 14°
2026-05-08 10:50 28.55773 77.08169 734 ft 1 kts 14°
2026-05-08 10:50 28.55772 77.08169 734 ft 0 kts 14°
2026-05-08 10:56 28.55773 77.08169 737 ft 1 kts 14°
2026-05-08 10:56 28.55791 77.08174 736 ft 4 kts 13°
2026-05-08 10:56 28.55844 77.08171 735 ft 11 kts 333°
2026-05-08 10:56 28.55931 77.08112 734 ft 17 kts 329°
2026-05-08 10:57 28.56014 77.08031 733 ft 15 kts 284°
2026-05-08 10:57 28.55945 77.07964 734 ft 15 kts 193°
2026-05-08 10:57 28.55712 77.07896 736 ft 20 kts 194°
2026-05-08 10:58 28.55569 77.07853 738 ft 23 kts 194°
2026-05-08 10:58 28.55410 77.07808 739 ft 24 kts 194°
2026-05-08 10:58 28.55255 77.07762 740 ft 20 kts 195°
2026-05-08 10:58 28.55161 77.07726 741 ft 13 kts 220°
2026-05-08 10:59 28.55163 77.07621 740 ft 15 kts 285°
2026-05-08 10:59 28.55194 77.07487 738 ft 20 kts 284°
2026-05-08 10:59 28.55232 77.07321 736 ft 23 kts 285°
2026-05-08 10:59 28.55276 77.07135 733 ft 25 kts 284°
2026-05-08 11:00 28.55272 77.07010 732 ft 15 kts 221°
2026-05-08 11:00 28.55169 77.06978 731 ft 15 kts 192°
2026-05-08 11:00 28.55063 77.06949 731 ft 14 kts 195°
2026-05-08 11:00 28.54988 77.06949 730 ft 10 kts 139°
2026-05-08 11:01 28.54974 77.07001 731 ft 0 kts 103°
2026-05-08 11:01 28.54974 77.07002 731 ft 1 kts 103°
2026-05-08 11:01 28.54952 77.07105 732 ft 39 kts 104°
2026-05-08 11:02 28.54837 77.07640 740 ft 98 kts 103°
2026-05-08 11:02 28.54380 77.09768 987 ft 161 kts 103°
2026-05-08 11:02 28.54105 77.10999 1569 ft 162 kts 104°
2026-05-08 11:03 28.53722 77.12219 2023 ft 172 kts 127°
2026-05-08 11:03 28.52649 77.12983 2270 ft 199 kts 162°
2026-05-08 11:03 28.51193 77.13198 2527 ft 224 kts 171°
2026-05-08 11:03 28.49555 77.13369 2861 ft 248 kts 173°
2026-05-08 11:04 28.47774 77.13535 3403 ft 264 kts 174°
2026-05-08 11:04 28.45912 77.13701 4125 ft 270 kts 174°
2026-05-08 11:04 28.44031 77.13870 4954 ft 273 kts 175°
2026-05-08 11:04 28.42128 77.14037 5742 ft 275 kts 176°
2026-05-08 11:05 28.40202 77.14210 6504 ft 279 kts 176°
2026-05-08 11:05 28.38251 77.14388 7200 ft 283 kts 177°
2026-05-08 11:05 28.36265 77.14565 7888 ft 289 kts 178°
2026-05-08 11:05 28.34927 77.14683 8346 ft 293 kts 178°
2026-05-08 11:06 28.32208 77.14929 9256 ft 299 kts 178°
2026-05-08 11:06 28.30112 77.15120 9909 ft 304 kts 178°
2026-05-08 11:06 28.27993 77.15106 10524 ft 306 kts 189°
2026-05-08 11:06 28.26563 77.14903 10945 ft 308 kts 190°
2026-05-08 11:07 28.23725 77.14494 11793 ft 313 kts 190°
2026-05-08 11:07 28.22263 77.14282 12224 ft 315 kts 190°
2026-05-08 11:07 28.19359 77.13861 13070 ft 320 kts 190°
2026-05-08 11:07 28.17136 77.13542 13700 ft 324 kts 190°
2026-05-08 11:08 28.15614 77.13323 14083 ft 327 kts 190°
2026-05-08 11:08 28.13345 77.12998 14661 ft 330 kts 190°
2026-05-08 11:08 28.11087 77.12673 15235 ft 333 kts 190°
2026-05-08 11:08 28.08771 77.12365 15823 ft 337 kts 186°
2026-05-08 11:09 28.06430 77.12667 16370 ft 345 kts 163°
2026-05-08 11:09 28.04297 77.13956 16803 ft 355 kts 140°
2026-05-08 11:09 28.02710 77.16159 16935 ft 370 kts 115°
2026-05-08 11:09 28.01644 77.18879 17067 ft 386 kts 111°
2026-05-08 11:10 28.00566 77.21722 17208 ft 401 kts 111°
2026-05-08 11:10 27.99446 77.24655 17591 ft 408 kts 112°
2026-05-08 11:10 27.98307 77.27611 18107 ft 412 kts 112°
2026-05-08 11:10 27.97151 77.30590 18574 ft 415 kts 112°
2026-05-08 11:11 27.95981 77.33591 19025 ft 419 kts 112°
2026-05-08 11:11 27.94799 77.36620 19494 ft 423 kts 112°
2026-05-08 11:11 27.93605 77.39678 19942 ft 427 kts 112°
2026-05-08 11:11 27.92401 77.42760 20387 ft 430 kts 112°
2026-05-08 11:12 27.91195 77.45869 20827 ft 434 kts 111°
2026-05-08 11:12 27.90049 77.49053 21260 ft 437 kts 110°
2026-05-08 11:12 27.88992 77.52242 21668 ft 441 kts 108°
2026-05-08 11:12 27.87958 77.55515 22072 ft 444 kts 108°
2026-05-08 11:13 27.86925 77.58826 22484 ft 447 kts 108°
2026-05-08 11:13 27.85876 77.62158 22857 ft 452 kts 108°
2026-05-08 11:13 27.84799 77.65510 23238 ft 456 kts 109°
2026-05-08 11:13 27.83694 77.68883 23584 ft 459 kts 109°
2026-05-08 11:14 27.82589 77.72280 23944 ft 462 kts 108°
2026-05-08 11:14 27.81586 77.75744 24307 ft 463 kts 105°
2026-05-08 11:14 27.80688 77.79242 24672 ft 465 kts 103°
2026-05-08 11:14 27.79848 77.82768 25030 ft 467 kts 103°
2026-05-08 11:15 27.79026 77.86327 25380 ft 468 kts 103°
2026-05-08 11:15 27.78193 77.89891 25738 ft 470 kts 103°
2026-05-08 11:15 27.77328 77.93467 26084 ft 473 kts 103°
2026-05-08 11:15 27.76434 77.97042 26454 ft 475 kts 104°
2026-05-08 11:16 27.75516 78.00632 26809 ft 476 kts 104°
2026-05-08 11:16 27.74602 78.04182 27161 ft 478 kts 104°
2026-05-08 11:16 27.73671 78.07794 27522 ft 480 kts 104°
2026-05-08 11:16 27.72741 78.11425 27870 ft 482 kts 104°
2026-05-08 11:17 27.71641 78.15011 28214 ft 485 kts 110°
2026-05-08 11:17 27.70386 78.18552 28557 ft 487 kts 110°
2026-05-08 11:17 27.69124 78.22104 28979 ft 487 kts 110°
2026-05-08 11:17 27.67862 78.25640 29483 ft 485 kts 110°
2026-05-08 11:18 27.66598 78.29166 29972 ft 484 kts 110°
2026-05-08 11:18 27.65338 78.32676 30350 ft 483 kts 110°
2026-05-08 11:18 27.64077 78.36196 30704 ft 483 kts 110°
2026-05-08 11:18 27.62819 78.39711 31042 ft 484 kts 110°
2026-05-08 11:19 27.61558 78.43233 31382 ft 485 kts 110°
2026-05-08 11:19 27.60293 78.46768 31726 ft 486 kts 110°
2026-05-08 11:19 27.59027 78.50297 32037 ft 487 kts 111°
2026-05-08 11:19 27.57753 78.53845 32340 ft 489 kts 111°
2026-05-08 11:20 27.56471 78.57401 32669 ft 490 kts 111°
2026-05-08 11:20 27.55188 78.60967 33013 ft 491 kts 110°
2026-05-08 11:20 27.53906 78.64536 33351 ft 492 kts 111°
2026-05-08 11:20 27.52616 78.68114 33697 ft 493 kts 111°
2026-05-08 11:21 27.51325 78.71679 34034 ft 492 kts 111°
2026-05-08 11:21 27.50029 78.75248 34324 ft 492 kts 111°
2026-05-08 11:21 27.48735 78.78814 34576 ft 492 kts 111°
2026-05-08 11:21 27.47442 78.82389 34820 ft 493 kts 111°
2026-05-08 11:22 27.46150 78.85963 35056 ft 493 kts 111°
2026-05-08 11:22 27.44854 78.89537 35294 ft 494 kts 111°
2026-05-08 11:22 27.43550 78.93126 35524 ft 494 kts 111°
2026-05-08 11:22 27.42246 78.96712 35748 ft 495 kts 111°
2026-05-08 11:23 27.40949 79.00271 35966 ft 496 kts 112°
2026-05-08 11:23 27.39638 79.03861 36176 ft 496 kts 112°
2026-05-08 11:23 27.38320 79.07464 36401 ft 497 kts 112°
2026-05-08 11:23 27.37007 79.11058 36620 ft 497 kts 112°
2026-05-08 11:24 27.35695 79.14655 36766 ft 498 kts 112°
2026-05-08 11:24 27.33044 79.21919 36802 ft 506 kts 112°
2026-05-08 11:25 27.30361 79.29235 36806 ft 512 kts 112°
2026-05-08 11:25 27.27631 79.36650 36797 ft 512 kts 112°
2026-05-08 11:26 27.24933 79.44071 36823 ft 513 kts 112°
2026-05-08 11:26 27.22437 79.51568 36802 ft 512 kts 110°
2026-05-08 11:27 27.20028 79.59096 36809 ft 512 kts 110°
2026-05-08 11:27 27.17565 79.66604 36813 ft 512 kts 111°
2026-05-08 11:28 27.15045 79.74088 36819 ft 512 kts 111°
2026-05-08 11:28 27.12526 79.81573 36834 ft 512 kts 111°
2026-05-08 11:29 27.10020 79.89054 36787 ft 512 kts 111°
2026-05-08 11:29 27.07511 79.96525 36795 ft 512 kts 111°
2026-05-08 11:30 27.05016 80.03945 36804 ft 512 kts 112°
2026-05-08 11:30 27.02487 80.11416 36819 ft 512 kts 112°
2026-05-08 11:31 26.99959 80.18878 36822 ft 512 kts 112°
2026-05-08 11:31 26.97440 80.26342 36824 ft 512 kts 112°
2026-05-08 11:32 26.94908 80.33792 36822 ft 511 kts 112°
2026-05-08 11:32 26.92373 80.41240 36822 ft 511 kts 112°
2026-05-08 11:33 26.89835 80.48681 36824 ft 511 kts 112°
2026-05-08 11:33 26.87294 80.56118 36834 ft 511 kts 112°
2026-05-08 11:34 26.84755 80.63534 36797 ft 510 kts 113°
2026-05-08 11:34 26.82206 80.70958 36804 ft 510 kts 113°
2026-05-08 11:35 26.79667 80.78382 36812 ft 511 kts 113°
2026-05-08 11:35 26.77120 80.85802 36815 ft 511 kts 113°
2026-05-08 11:36 26.74666 80.93268 36823 ft 511 kts 110°
2026-05-08 11:36 26.72656 81.00908 36825 ft 512 kts 107°
2026-05-08 11:37 26.70820 81.08552 36823 ft 512 kts 107°
2026-05-08 11:37 26.68880 81.16203 36822 ft 511 kts 108°
2026-05-08 11:38 26.66843 81.23814 36818 ft 511 kts 108°
2026-05-08 11:38 26.64795 81.31423 36820 ft 511 kts 109°
2026-05-08 11:39 26.62767 81.39026 36817 ft 510 kts 109°
2026-05-08 11:39 26.60742 81.46633 36783 ft 510 kts 109°
2026-05-08 11:40 26.58716 81.54241 36796 ft 510 kts 109°
2026-05-08 11:40 26.56686 81.61846 36803 ft 511 kts 109°
2026-05-08 11:41 26.54664 81.69410 36803 ft 511 kts 109°
2026-05-08 11:41 26.52617 81.77012 36805 ft 511 kts 109°
2026-05-08 11:42 26.50561 81.84613 36807 ft 511 kts 109°
2026-05-08 11:42 26.48512 81.92206 36810 ft 511 kts 109°
2026-05-08 11:43 26.46458 81.99806 36811 ft 511 kts 109°
2026-05-08 11:43 26.44402 82.07401 36812 ft 511 kts 109°
2026-05-08 11:44 26.42341 82.14992 36817 ft 511 kts 110°
2026-05-08 11:44 26.40275 82.22578 36811 ft 511 kts 110°
2026-05-08 11:45 26.38204 82.30158 36812 ft 511 kts 110°
2026-05-08 11:45 26.36140 82.37684 36786 ft 511 kts 110°
2026-05-08 11:46 26.34056 82.45270 36788 ft 511 kts 110°
2026-05-08 11:46 26.31970 82.52852 36792 ft 512 kts 110°
2026-05-08 11:47 26.29877 82.60439 36797 ft 512 kts 110°
2026-05-08 11:47 26.27782 82.68031 36803 ft 513 kts 110°
2026-05-08 11:48 26.25682 82.75622 36812 ft 513 kts 110°
2026-05-08 11:48 26.23575 82.83218 36810 ft 513 kts 111°
2026-05-08 11:49 26.21468 82.90809 36817 ft 513 kts 111°
2026-05-08 11:49 26.19354 82.98407 36818 ft 513 kts 111°
2026-05-08 11:50 26.17238 83.05990 36825 ft 513 kts 111°
2026-05-08 11:50 26.15107 83.13583 36826 ft 513 kts 111°
2026-05-08 11:51 26.13009 83.21129 36824 ft 514 kts 111°
2026-05-08 11:51 26.10913 83.28734 36824 ft 514 kts 111°
2026-05-08 11:52 26.08808 83.36336 36797 ft 515 kts 111°
2026-05-08 11:52 26.06684 83.43954 36803 ft 516 kts 112°
2026-05-08 11:53 26.04896 83.50339 36811 ft 516 kts 112°
2026-05-08 11:53 26.02770 83.57915 36812 ft 517 kts 112°
2026-05-08 11:54 26.00619 83.65552 36819 ft 517 kts 112°
2026-05-08 11:54 25.98462 83.73185 36817 ft 518 kts 112°
2026-05-08 11:55 25.96286 83.80827 36826 ft 518 kts 112°
2026-05-08 11:55 25.94105 83.88459 36826 ft 518 kts 112°
2026-05-08 11:56 25.91930 83.96094 36832 ft 518 kts 112°
2026-05-08 11:56 25.89745 84.03731 36826 ft 518 kts 112°
2026-05-08 11:57 25.87563 84.11361 36833 ft 519 kts 112°
2026-05-08 11:57 25.85372 84.18992 36834 ft 518 kts 112°
2026-05-08 11:58 25.83176 84.26613 36801 ft 518 kts 112°
2026-05-08 11:58 25.80982 84.34234 36809 ft 518 kts 112°
2026-05-08 11:59 25.77695 84.45606 36818 ft 518 kts 112°
2026-05-08 11:59 25.75476 84.53223 36830 ft 518 kts 113°
2026-05-08 12:00 25.73258 84.60838 36834 ft 518 kts 112°
2026-05-08 12:00 25.71052 84.68458 36837 ft 518 kts 113°
2026-05-08 12:01 25.68836 84.76073 36839 ft 518 kts 113°
2026-05-08 12:01 25.66611 84.83662 36838 ft 518 kts 113°
2026-05-08 12:02 25.64382 84.91255 36832 ft 518 kts 113°
2026-05-08 12:02 25.62147 84.98839 36823 ft 517 kts 113°
2026-05-08 12:03 25.59913 85.06419 36813 ft 517 kts 113°
2026-05-08 12:03 25.58217 85.14210 36810 ft 523 kts 105°
2026-05-08 12:04 25.56848 85.22130 36815 ft 523 kts 105°
2026-05-08 12:04 25.55464 85.29988 36797 ft 523 kts 105°
2026-05-08 12:05 25.54075 85.37897 36837 ft 523 kts 105°
2026-05-08 12:05 25.52677 85.45796 36848 ft 523 kts 105°
2026-05-08 12:06 25.51281 85.53696 36850 ft 523 kts 105°
2026-05-08 12:06 25.49882 85.61609 36857 ft 523 kts 105°
2026-05-08 12:07 25.48482 85.69499 36859 ft 523 kts 105°
2026-05-08 12:07 25.47076 85.77393 36861 ft 523 kts 106°
2026-05-08 12:08 25.45660 85.85286 36860 ft 523 kts 106°
2026-05-08 12:08 25.44243 85.93189 36867 ft 523 kts 105°
2026-05-08 12:09 25.42839 86.01018 36866 ft 522 kts 106°
2026-05-08 12:09 25.41418 86.08904 36867 ft 522 kts 106°
2026-05-08 12:10 25.39988 86.16790 36866 ft 522 kts 106°
2026-05-08 12:10 25.38547 86.24669 36864 ft 523 kts 106°
2026-05-08 12:11 25.37100 86.32551 36857 ft 524 kts 106°
2026-05-08 12:11 25.35660 86.40452 36871 ft 524 kts 107°
2026-05-08 12:12 25.33330 86.47956 36869 ft 511 kts 121°
2026-05-08 12:12 25.30354 86.55093 36869 ft 512 kts 121°
2026-05-08 12:13 25.27390 86.62249 36868 ft 513 kts 121°
2026-05-08 12:13 25.24443 86.69381 36869 ft 514 kts 121°
2026-05-08 12:14 25.21464 86.76558 36868 ft 514 kts 121°
2026-05-08 12:14 25.18469 86.83730 36874 ft 514 kts 121°
2026-05-08 12:15 25.15459 86.90899 36874 ft 514 kts 121°
2026-05-08 12:15 25.12468 86.98064 36877 ft 515 kts 121°
2026-05-08 12:16 25.09471 87.05246 36880 ft 515 kts 121°
2026-05-08 12:16 25.06463 87.12412 36884 ft 515 kts 121°
2026-05-08 12:17 25.03451 87.19579 36886 ft 515 kts 121°
2026-05-08 12:17 25.00435 87.26735 36887 ft 515 kts 121°
2026-05-08 12:18 24.97416 87.33892 36864 ft 514 kts 121°
2026-05-08 12:18 24.94400 87.41033 36874 ft 514 kts 121°
2026-05-08 12:19 24.91377 87.48173 36888 ft 513 kts 121°
2026-05-08 12:19 24.88353 87.55304 36886 ft 513 kts 121°
2026-05-08 12:20 24.85335 87.62431 36877 ft 513 kts 121°
2026-05-08 12:20 24.82335 87.69499 36886 ft 513 kts 121°
2026-05-08 12:21 24.79307 87.76615 36873 ft 513 kts 121°
2026-05-08 12:21 24.76296 87.83716 36880 ft 513 kts 121°
2026-05-08 12:22 24.73355 87.90880 36876 ft 513 kts 120°
2026-05-08 12:22 24.70441 87.98045 36870 ft 513 kts 120°
2026-05-08 12:23 24.67513 88.05197 36858 ft 512 kts 120°
2026-05-08 12:23 24.64558 88.12301 36860 ft 511 kts 120°
2026-05-08 12:24 24.61599 88.19351 36861 ft 510 kts 120°
2026-05-08 12:24 24.58630 88.26429 36865 ft 509 kts 120°
2026-05-08 12:25 24.55669 88.33502 36868 ft 509 kts 120°
2026-05-08 12:25 24.52710 88.40566 36798 ft 509 kts 120°
2026-05-08 12:26 24.51213 88.44126 35859 ft 518 kts 120°
2026-05-08 12:26 24.49748 88.47601 35041 ft 524 kts 121°
2026-05-08 12:26 24.48212 88.51251 34187 ft 529 kts 121°
2026-05-08 12:26 24.46666 88.54924 33541 ft 529 kts 121°
2026-05-08 12:27 24.45121 88.58601 32727 ft 530 kts 120°
2026-05-08 12:27 24.43591 88.62284 31950 ft 532 kts 119°
2026-05-08 12:27 24.42179 88.66027 31362 ft 529 kts 116°
2026-05-08 12:27 24.40888 88.69811 30701 ft 528 kts 115°
2026-05-08 12:28 24.39679 88.73609 30102 ft 525 kts 114°
2026-05-08 12:28 24.38505 88.77387 29485 ft 520 kts 114°
2026-05-08 12:28 24.37338 88.81106 28562 ft 512 kts 114°
2026-05-08 12:28 24.36156 88.84767 27683 ft 505 kts 114°
2026-05-08 12:29 24.34962 88.88349 27114 ft 497 kts 115°
2026-05-08 12:29 24.33754 88.91884 26516 ft 492 kts 115°
2026-05-08 12:29 24.32549 88.95381 25937 ft 488 kts 115°
2026-05-08 12:29 24.31357 88.98842 25443 ft 481 kts 115°
2026-05-08 12:30 24.30185 89.02264 24873 ft 477 kts 115°
2026-05-08 12:30 24.29035 89.05642 24345 ft 472 kts 114°
2026-05-08 12:30 24.27899 89.09000 23792 ft 468 kts 114°
2026-05-08 12:30 24.26784 89.12314 23400 ft 459 kts 114°
2026-05-08 12:31 24.25695 89.15546 22758 ft 455 kts 113°
2026-05-08 12:31 24.24590 89.18809 22238 ft 448 kts 113°
2026-05-08 12:31 24.23511 89.21984 21755 ft 442 kts 113°
2026-05-08 12:31 24.22445 89.25122 21253 ft 437 kts 114°
2026-05-08 12:32 24.21401 89.28192 20773 ft 433 kts 114°
2026-05-08 12:32 24.20350 89.31275 20258 ft 431 kts 114°
2026-05-08 12:32 24.19309 89.34332 19752 ft 428 kts 114°
2026-05-08 12:32 24.18268 89.37388 19220 ft 425 kts 114°
2026-05-08 12:33 24.17234 89.40417 18694 ft 423 kts 113°
2026-05-08 12:33 24.16204 89.43426 18157 ft 421 kts 113°
2026-05-08 12:33 24.15179 89.46423 17559 ft 419 kts 113°
2026-05-08 12:33 24.14162 89.49394 17028 ft 415 kts 113°
2026-05-08 12:34 24.13156 89.52339 16489 ft 410 kts 113°
2026-05-08 12:34 24.12332 89.55314 15956 ft 408 kts 102°
2026-05-08 12:34 24.12068 89.58398 15428 ft 406 kts 90°
2026-05-08 12:34 24.12263 89.61464 14903 ft 402 kts 85°
2026-05-08 12:35 24.12497 89.64504 14411 ft 398 kts 85°
2026-05-08 12:35 24.12725 89.67504 13893 ft 395 kts 85°
2026-05-08 12:35 24.12946 89.70474 13352 ft 391 kts 85°
2026-05-08 12:35 24.13164 89.73421 12922 ft 384 kts 85°
2026-05-08 12:36 24.13375 89.76277 12785 ft 369 kts 85°
2026-05-08 12:36 24.13511 89.78106 12701 ft 360 kts 85°
2026-05-08 12:36 24.13710 89.80788 12574 ft 348 kts 85°
2026-05-08 12:36 24.13902 89.83394 12448 ft 337 kts 85°
2026-05-08 12:37 24.14086 89.85920 12199 ft 330 kts 85°
2026-05-08 12:37 24.14267 89.88410 11717 ft 326 kts 85°
2026-05-08 12:37 24.14505 89.91677 11068 ft 324 kts 84°
2026-05-08 12:37 24.14682 89.94122 10593 ft 321 kts 84°
2026-05-08 12:38 24.14803 89.95762 10275 ft 320 kts 84°
2026-05-08 12:38 24.14981 89.98187 9800 ft 318 kts 84°
2026-05-08 12:38 24.15156 90.00590 9324 ft 315 kts 84°
2026-05-08 12:38 24.15327 90.02971 8847 ft 312 kts 84°
2026-05-08 12:39 24.15492 90.05320 8293 ft 308 kts 84°
2026-05-08 12:39 24.15657 90.07655 7576 ft 309 kts 84°
2026-05-08 12:39 24.15822 90.09964 7299 ft 295 kts 85°
2026-05-08 12:39 24.15942 90.12132 7181 ft 276 kts 92°
2026-05-08 12:40 24.15542 90.14075 7070 ft 258 kts 116°
2026-05-08 12:40 24.14553 90.15665 6789 ft 245 kts 139°
2026-05-08 12:40 24.13251 90.16772 6476 ft 236 kts 146°
2026-05-08 12:40 24.11932 90.17815 6171 ft 233 kts 146°
2026-05-08 12:41 24.10617 90.18857 5849 ft 234 kts 146°
2026-05-08 12:41 24.09295 90.19908 5543 ft 235 kts 146°
2026-05-08 12:41 24.07975 90.20959 5236 ft 235 kts 146°
2026-05-08 12:41 24.06653 90.22014 4930 ft 236 kts 145°
2026-05-08 12:42 24.05328 90.23072 4631 ft 236 kts 145°
2026-05-08 12:42 24.04000 90.24130 4319 ft 236 kts 145°
2026-05-08 12:42 24.02671 90.25189 4008 ft 236 kts 145°
2026-05-08 12:42 24.01339 90.26247 3699 ft 237 kts 144°
2026-05-08 12:43 24.00004 90.27306 3386 ft 237 kts 144°
2026-05-08 12:43 23.98672 90.28367 3107 ft 235 kts 144°
2026-05-08 12:43 23.97351 90.29421 2771 ft 235 kts 143°
2026-05-08 12:43 23.96065 90.30449 2471 ft 224 kts 143°
2026-05-08 12:44 23.94835 90.31428 2181 ft 212 kts 143°
2026-05-08 12:44 23.93670 90.32354 1972 ft 199 kts 143°
2026-05-08 12:44 23.92595 90.33208 1723 ft 184 kts 143°
2026-05-08 12:44 23.91613 90.33988 1513 ft 164 kts 143°
2026-05-08 12:45 23.90739 90.34683 1270 ft 149 kts 143°
2026-05-08 12:45 23.89892 90.35356 1085 ft 151 kts 142°
2026-05-08 12:45 23.89052 90.36021 892 ft 148 kts 143°
2026-05-08 12:45 23.88214 90.36689 716 ft 152 kts 143°
2026-05-08 12:46 23.87368 90.37366 528 ft 150 kts 143°
2026-05-08 12:46 23.86524 90.38039 326 ft 150 kts 144°
2026-05-08 12:46 23.85691 90.38698 112 ft 149 kts 144°
2026-05-08 12:46 23.84880 90.39345 30 ft 128 kts 142°
2026-05-08 12:47 23.84370 90.39750 29 ft 55 kts 144°
2026-05-08 12:47 23.84133 90.39948 30 ft 35 kts 133°
2026-05-08 12:47 23.84026 90.40146 31 ft 23 kts 114°
2026-05-08 12:47 23.83995 90.40307 30 ft 23 kts 87°
2026-05-08 12:48 23.84050 90.40457 30 ft 18 kts 55°
2026-05-08 12:48 23.84110 90.40547 30 ft 14 kts 53°
2026-05-08 12:48 23.84197 90.40554 30 ft 16 kts 322°
2026-05-08 12:48 23.84295 90.40476 30 ft 19 kts 323°
2026-05-08 12:49 23.84391 90.40398 30 ft 18 kts 324°
2026-05-08 12:49 23.84502 90.40312 30 ft 21 kts 324°
2026-05-08 12:49 23.84604 90.40234 30 ft 15 kts 335°
2026-05-08 12:49 23.84679 90.40284 30 ft 12 kts 54°
2026-05-08 12:50 23.84700 90.40352 30 ft 7 kts 88°
2026-05-08 12:50 23.84721 90.40394 30 ft 4 kts 56°
2026-05-08 12:50 23.84739 90.40423 30 ft 3 kts 56°
2026-05-08 12:50 23.84741 90.40426 30 ft 0 kts 56°